User: anonymous   Login
Location: Unspecified
(0.0000°N, 0.0000°E)
Time: 02:53:30
(UTC+00:00)
Language:

USA 207 - Orbit

View from above orbital plane
View from above orbital plane
View from above satellite
View from above satellite

Ground track
Ground track

The orbit data is extracted from the following two-line orbital elements,

1 35815U 09047A   17106.94062820 0.00000000  00000-0  00000-0 0    01
2 35815   0.0732 231.5609 0011723 315.9330  43.9770  1.00270000    00
Epoch (UTC): 16 April 2017 22:34:30
Eccentricity: 0.0011723
inclination: 0.0732°
perigee height: 35737 km
apogee height: 35836 km
right ascension of ascending node: 231.5609°
argument of perigee: 315.9330°
revolutions per day: 1.00270000
mean anomaly at epoch: 43.9770°
orbit number at epoch: 0

The dashed part of the orbit path shows where the satellite is in the earth's shadow,  

DLR